This is the latest recevied weather packets stored in our database for station/object K4KMJ. If no packets are shown the sender has not sent any weather packets the latest 10 day(s).
| Time | Temp. | Humidity | Pressure | Rain* | Wind** | Luminosity | Snow |
|---|---|---|---|---|---|---|---|
| 1788537021 | 32.78° C | 77% | 1018.5 hPa | 0 mm | - | 608 W/m² | - |
| 1788536715 | 32.78° C | 77% | 1018.5 hPa | 0 mm | - | 618 W/m² | - |
| 1788536410 | 32.22° C | 78% | 1018.5 hPa | 0 mm | - | 627 W/m² | - |
| 1788536109 | 32.78° C | 78% | 1018.4 hPa | 0 mm | - | 591 W/m² | - |
| 1788535806 | 32.22° C | 78% | 1018.4 hPa | 0 mm | - | 598 W/m² | - |
| 1788535501 | 32.22° C | 79% | 1018.4 hPa | 0 mm | - | 596 W/m² | - |
| 1788535220 | 32.78° C | 79% | 1018.5 hPa | 0 mm | - | 594 W/m² | - |
| 1788534891 | 32.22° C | 80% | 1018.4 hPa | 0 mm | - | 606 W/m² | - |
| 1788534585 | 32.78° C | 80% | 1018.5 hPa | 0 mm | - | 575 W/m² | - |
| 1788534280 | 32.78° C | 82% | 1018.5 hPa | 0 mm | - | 571 W/m² | - |
| 1788533978 | 31.67° C | 82% | 1018.3 hPa | 0 mm | - | 541 W/m² | - |
| 1788533674 | 31.67° C | 82% | 1018 hPa | 0 mm | - | 534 W/m² | - |
| 1788533370 | 31.67° C | 82% | 1018.4 hPa | 0 mm | - | 514 W/m² | - |
| 1788533065 | 31.67° C | 84% | 1018.5 hPa | 0 mm | - | 528 W/m² | - |
| 1788532761 | 30.56° C | 84% | 1018.5 hPa | 0 mm | - | 505 W/m² | - |
| 1788532457 | 31.11° C | 84% | 1018.4 hPa | 0 mm | - | 403 W/m² | - |
| 1788532175 | 31.67° C | 84% | 1017.9 hPa | 0 mm | - | 122 W/m² | - |
| 1788531849 | 31.11° C | 85% | 1018.3 hPa | 0 mm | - | 461 W/m² | - |
| 1788531543 | 31.11° C | 86% | 1018.3 hPa | 0 mm | - | 463 W/m² | - |
| 1788531238 | 31.11° C | 87% | 1018.1 hPa | 0 mm | - | 450 W/m² | - |
| 1788530934 | 30.56° C | 88% | 1018.2 hPa | 0 mm | - | 442 W/m² | - |
| 1788530644 | 30.56° C | 88% | 1018 hPa | 0 mm | - | 433 W/m² | - |
| 1788530323 | 30.56° C | 88% | 1018 hPa | 0 mm | - | 422 W/m² | - |
| 1788530018 | 30.56° C | 88% | 1018 hPa | 0 mm | - | 408 W/m² | - |
| 1788529714 | 30.56° C | 88% | 1018 hPa | 0 mm | - | 397 W/m² | - |
* Rain latest hour (hover to see other rain measurements)
** Current wind speed in m/s (hover to see current wind gust speed)